Content
SEND FEEDBACK

Daily
Averages
Monthly
Summary
United States of America

CEDAR RAPIDS, IOWA


Home > North America > United States > Iowa
Elevation: 863 feet     Latitude: 41 53N     Longitude: 091 42W

WEATHER
 
SELECT A DAY
Number of Records: 199,721;   Date Range: 1/1/95 - 8/28/14
 
SHARE

PRINT THIS DATA

[ ← Previous Day ]
WEATHER ALMANAC - JANUARY 23, 2013
[ Next Day → ]
[ °C ]   °F
Weather ElementAverageHighLow
Temperature16.8 °F28 °F (1:52 pm)6.1 °F (11:52 pm)
Dewpoint5.1 °F12.9 °F (2:52 pm)-6 °F (11:52 pm)
Humidity60.4 %70 % (7:52 am)51 % (1:52 pm)
Barometer30.28 in30.51 in (11:52 pm)30.16 in (1:52 pm)
Wind Speed15.1 mph25.3 mph (6:52 pm)
Wind Gust34.5 mph (6:52 pm)
Weather ElementAverage
Visibility10 mi
Wind DirectionWSW (261.3 °)

Weather ElementTotal
Precipitation---
Heating Degree Days48 (Base 65)
Averaged from 23 records on January 23, 2013
WEATHER CONDITIONS BREAKOUT
WIND DIRECTION BREAKOUT
WEATHER BY HOUR - JANUARY 23, 2013
[ °C ]   °F
Local TimeTemperatureDewpointHumidityBarometerVisibilityWind DirectionWind SpeedGust SpeedPrecipitationEventsConditions
1:52 AM12.0 °F3.0 °F67 %30.32 in10.0 miSouth (190°)4.6 mph0.00 inOvercast
2:52 AM12.0 °F3.0 °F67 %30.32 in10.0 miSSE (160°)4.6 mphOvercast
3:52 AM12.9 °F1.9 °F62 %30.28 in10.0 miSouth (190°)8.1 mphOvercast
4:52 AM12.9 °F3.0 °F65 %30.27 in10.0 miSouth (170°)5.8 mphOvercast
5:52 AM14.0 °F3.9 °F64 %30.25 in10.0 miSouth (190°)10.4 mphOvercast
6:52 AM14.0 °F5.0 °F67 %30.24 in10.0 miSouth (180°)11.5 mphOvercast
7:52 AM15.1 °F7.0 °F70 %30.23 in10.0 miSouth (180°)8.1 mphOvercast
8:52 AM17.1 °F7.0 °F65 %30.23 in10.0 miSouth (190°)15.0 mphOvercast
9:52 AM18.0 °F8.1 °F65 %30.22 in10.0 miSSW (200°)12.7 mphOvercast
10:52 AM21.0 °F8.1 °F57 %30.21 in10.0 miSW (230°)10.4 mphScattered Clouds
11:52 AM23.0 °F9.0 °F55 %30.19 in10.0 miWest (280°)13.8 mphClear
12:52 PM25.0 °F10.0 °F53 %30.17 in10.0 miWNW (300°)16.1 mphClear
1:52 PM28.0 °F12.0 °F51 %30.16 in10.0 miWNW (300°)18.4 mphClear
2:52 PM28.0 °F12.9 °F53 %30.17 in10.0 miWNW (300°)18.4 mph27.6 mphClear
3:52 PM27.0 °F12.0 °F53 %30.21 in10.0 miNW (310°)21.9 mph31.1 mphPartly Cloudy
4:52 PM23.0 °F10.0 °F58 %30.23 in10.0 miNW (310°)20.7 mph27.6 mphClear
5:52 PM19.9 °F9.0 °F62 %30.27 in10.0 miNW (310°)17.3 mphClear
6:52 PM17.1 °F3.0 °F54 %30.32 in10.0 miNW (310°)25.3 mph34.5 mphClear
7:52 PM12.9 °F1.0 °F59 %30.36 in10.0 miNW (320°)24.2 mph34.5 mphClear
8:52 PM10.9 °F-0.9 °F59 %30.39 in10.0 miNNW (330°)21.9 mph32.2 mphClear
9:52 PM9.0 °F-0.9 °F64 %30.43 in10.0 miNNW (340°)18.4 mph27.6 mphClear
10:52 PM8.1 °F-2.9 °F61 %30.45 in10.0 miNorth (360°)19.6 mph29.9 mphClear
11:52 PM6.1 °F-6.0 °F58 %30.51 in10.0 miNorth (360°)19.6 mphClear
Hourly data recorded from KCID, located miles away from Cedar Rapids, Iowa







STORIES FROM OUR PARTNERS